Weather History for Newton, KS

Change the Weather History Date:

Sunday, March 30, 2014

  Actual Average Record
Temperature  
Mean Temperature 58 °F -  
Max Temperature 73 °F 58 °F 75 °F (2012)
Min Temperature 42 °F 37 °F 24 °F (2003)
Degree Days  
Heating Degree Days 8    
Growing Degree Days 8 (Base 50)    
Moisture  
Dew Point 31 °F    
Average Humidity 36    
Maximum Humidity 57    
Minimum Humidity 22    
Precipitation  
Precipitation 0.00 in - - ()
Sea Level Pressure  
Sea Level Pressure 29.95 in    
Wind  
Wind Speed 20 mph (South)    
Max Wind Speed 36 mph    
Max Gust Speed 45 mph    
Visibility 10 miles    
Events      
Averages and records for this station are not official NWS values.
T = Trace of Precipitation, MM = Missing Value Source: NWS Daily Summary

Daily Weather History Graph

Daily Weather History Graph

Search for Another Location

Airport:

Trip Planner

Search our weather history database for the weather conditions in past years. The results will help you decide how hot, cold, wet, or windy it might be!

Date:

Astronomy

Mar. 30, 2014 Rise Set
Actual Time 7:17 AM CDT 7:50 PM CDT
Civil Twilight 6:50 AM CDT 8:16 PM CDT
Nautical Twilight 6:19 AM CDT 8:48 PM CDT
Astronomical Twilight 5:47 AM CDT 9:20 PM CDT
Moon 7:03 AM CDT (3/30) 8:03 PM CDT (3/30)
Length of Visible Light 13h 26m
Length of Day
12h 33m
Waning Crescent, 0% of the Moon is Illuminated
Mar 30
Waning Crescent
Mar 30
New
Apr 7
First Quarter
Apr 15
Full
Apr 22
Last Quarter

Hourly Weather History & Observations

Time (CDT) Temp. Windchill Dew Point Humidity Pressure Visibility Wind Dir Wind Speed Gust Speed Precip Events Conditions
12:15 AM 46.4 °F 40.7 °F 28.4 °F 50% 30.15 in 6.0 mi SSE 12.7 mph - N/A   Clear
12:35 AM 46.4 °F 40.7 °F 28.4 °F 50% 30.16 in 6.0 mi SSE 12.7 mph - N/A   Clear
12:55 AM 44.6 °F 38.8 °F 28.4 °F 53% 30.15 in 6.0 mi SSE 11.5 mph - N/A   Clear
1:15 AM 44.6 °F 38.4 °F 28.4 °F 53% 30.15 in 5.0 mi SSE 12.7 mph - N/A   Clear
1:35 AM 44.6 °F 38.1 °F 28.4 °F 53% 30.14 in 6.0 mi SSE 13.8 mph - N/A   Clear
1:55 AM 46.4 °F 40.4 °F 28.4 °F 50% 30.13 in 8.0 mi SSE 13.8 mph - N/A   Clear
2:15 AM 46.4 °F 40.7 °F 28.4 °F 50% 30.13 in 10.0 mi SSE 12.7 mph 17.3 mph N/A   Clear
2:35 AM 44.6 °F 38.4 °F 30.2 °F 57% 30.12 in 10.0 mi SSE 12.7 mph - N/A   Clear
2:55 AM 44.6 °F 38.8 °F 28.4 °F 53% 30.12 in 9.0 mi SSE 11.5 mph - N/A   Clear
3:15 AM 44.6 °F 39.7 °F 30.2 °F 57% 30.11 in 9.0 mi SSE 9.2 mph - N/A   Clear
3:35 AM 44.6 °F 38.4 °F 28.4 °F 53% 30.10 in 8.0 mi SSE 12.7 mph - N/A   Clear
3:55 AM 44.6 °F 37.2 °F 30.2 °F 57% 30.09 in 8.0 mi South 17.3 mph - N/A   Clear
4:15 AM 46.4 °F 39.8 °F 28.4 °F 50% 30.08 in 9.0 mi South 16.1 mph 21.9 mph N/A   Clear
4:35 AM 46.4 °F 40.1 °F 28.4 °F 50% 30.08 in 10.0 mi South 15.0 mph - N/A   Clear
4:55 AM 46.4 °F 40.7 °F 28.4 °F 50% 30.09 in 10.0 mi South 12.7 mph - N/A   Clear
5:15 AM 46.4 °F 40.4 °F 28.4 °F 50% 30.08 in 10.0 mi South 13.8 mph - N/A   Clear
5:35 AM 44.6 °F 37.8 °F 28.4 °F 53% 30.07 in 10.0 mi South 15.0 mph - N/A   Clear
5:55 AM 44.6 °F 38.1 °F 28.4 °F 53% 30.07 in 10.0 mi South 13.8 mph - N/A   Clear
6:15 AM 44.6 °F 37.8 °F 28.4 °F 53% 30.06 in 10.0 mi South 15.0 mph - N/A   Clear
6:35 AM 44.6 °F 38.1 °F 28.4 °F 53% 30.06 in 10.0 mi South 13.8 mph - N/A   Clear
6:55 AM 44.6 °F 39.2 °F 28.4 °F 53% 30.06 in 10.0 mi SSE 10.4 mph - N/A   Clear
7:15 AM 42.8 °F 37.5 °F 28.4 °F 57% 30.07 in 10.0 mi South 9.2 mph - N/A   Clear
7:35 AM 46.4 °F 39.5 °F 28.4 °F 50% 30.07 in 10.0 mi South 17.3 mph - N/A   Clear
7:55 AM 50.0 °F - 28.4 °F 43% 30.06 in 10.0 mi South 23.0 mph 27.6 mph N/A   Clear
8:15 AM 51.8 °F - 28.4 °F 41% 30.06 in 10.0 mi South 21.9 mph 27.6 mph N/A   Clear
8:35 AM 51.8 °F - 28.4 °F 41% 30.06 in 10.0 mi South 24.2 mph 29.9 mph N/A   Clear
8:55 AM 53.6 °F - 30.2 °F 41% 30.05 in 10.0 mi South 24.2 mph 31.1 mph N/A   Clear
9:15 AM 55.4 °F - 30.2 °F 38% 30.04 in 10.0 mi South 27.6 mph 33.4 mph N/A   Clear
9:35 AM 57.2 °F - 30.2 °F 36% 30.03 in 10.0 mi South 33.4 mph 39.1 mph N/A   Clear
9:55 AM 60.8 °F - 30.2 °F 31% 30.03 in 10.0 mi South 33.4 mph 42.6 mph N/A   Clear
10:15 AM 60.8 °F - 30.2 °F 31% 30.03 in 10.0 mi South 29.9 mph 41.4 mph N/A   Clear
10:35 AM 60.8 °F - 30.2 °F 31% 30.03 in 10.0 mi SSW 31.1 mph 38.0 mph N/A   Clear
10:55 AM 62.6 °F - 32.0 °F 32% 30.01 in 10.0 mi SSW 28.8 mph 43.7 mph N/A   Clear
11:15 AM 62.6 °F - 32.0 °F 32% 30.01 in 10.0 mi South 32.2 mph 43.7 mph N/A   Clear
11:35 AM 62.6 °F - 30.2 °F 30% 30.01 in 10.0 mi South 29.9 mph 39.1 mph N/A   Clear
11:55 AM 64.4 °F - 33.8 °F 32% 30.00 in 10.0 mi SSW 33.4 mph 40.3 mph N/A   Clear
12:15 PM 64.4 °F - 32.0 °F 30% 29.99 in 10.0 mi South 28.8 mph 36.8 mph N/A   Clear
12:35 PM 66.2 °F - 33.8 °F 30% 29.98 in 10.0 mi SSW 34.5 mph 40.3 mph N/A   Clear
12:55 PM 66.2 °F - 33.8 °F 30% 29.96 in 10.0 mi South 27.6 mph 40.3 mph N/A   Clear
1:15 PM 68.0 °F - 33.8 °F 28% 29.94 in 10.0 mi SSW 32.2 mph 40.3 mph N/A   Clear
1:35 PM 69.8 °F - 33.8 °F 27% 29.94 in 10.0 mi South 29.9 mph 40.3 mph N/A   Clear
1:55 PM 71.6 °F - 35.6 °F 27% 29.92 in 10.0 mi South 28.8 mph 39.1 mph N/A   Clear
2:15 PM 73.4 °F - 33.8 °F 23% 29.91 in 10.0 mi South 33.4 mph 42.6 mph N/A   Clear
2:35 PM 73.4 °F - 33.8 °F 23% 29.89 in 10.0 mi South 34.5 mph 41.4 mph N/A   Clear
2:55 PM 71.6 °F - 32.0 °F 23% 29.88 in 10.0 mi SSW 33.4 mph 44.9 mph N/A   Clear
3:15 PM 71.6 °F - 33.8 °F 25% 29.87 in 10.0 mi South 28.8 mph 43.7 mph N/A   Clear
3:35 PM 71.6 °F - 33.8 °F 25% 29.86 in 10.0 mi SSW 31.1 mph 38.0 mph N/A   Clear
3:55 PM 73.4 °F - 33.8 °F 23% 29.85 in 10.0 mi South 31.1 mph 43.7 mph N/A   Clear
4:15 PM 73.4 °F - 33.8 °F 23% 29.84 in 10.0 mi South 29.9 mph 39.1 mph N/A   Clear
4:35 PM 73.4 °F - 33.8 °F 23% 29.83 in 10.0 mi South 27.6 mph 36.8 mph N/A   Clear
4:55 PM 73.4 °F - 33.8 °F 23% 29.82 in 10.0 mi South 35.7 mph 44.9 mph N/A   Clear
5:15 PM 73.4 °F - 33.8 °F 23% 29.81 in 10.0 mi South 35.7 mph 43.7 mph N/A   Clear
5:35 PM 73.4 °F - 33.8 °F 23% 29.80 in 10.0 mi South 31.1 mph 35.7 mph N/A   Clear
5:55 PM 73.4 °F - 32.0 °F 22% 29.80 in 10.0 mi South 33.4 mph 41.4 mph N/A   Clear
6:15 PM 71.6 °F - 32.0 °F 23% 29.80 in 10.0 mi South 27.6 mph 40.3 mph N/A   Clear
6:35 PM 71.6 °F - 32.0 °F 23% 29.79 in 10.0 mi South 34.5 mph 40.3 mph N/A   Clear
6:55 PM 71.6 °F - 32.0 °F 23% 29.79 in 10.0 mi South 27.6 mph 33.4 mph N/A   Clear
7:15 PM 69.8 °F - 32.0 °F 25% 29.79 in 10.0 mi South 24.2 mph 33.4 mph N/A   Clear
7:35 PM 69.8 °F - 32.0 °F 25% 29.79 in 10.0 mi South 21.9 mph 27.6 mph N/A   Clear
7:55 PM 69.8 °F - 30.2 °F 23% 29.79 in 10.0 mi South 21.9 mph 31.1 mph N/A   Clear
8:15 PM 68.0 °F - 30.2 °F 24% 29.79 in 10.0 mi South 20.7 mph 28.8 mph N/A   Clear
8:35 PM 66.2 °F - 32.0 °F 28% 29.79 in 10.0 mi South 21.9 mph 27.6 mph N/A   Clear
8:55 PM 66.2 °F - 32.0 °F 28% 29.78 in 10.0 mi South 23.0 mph 29.9 mph N/A   Clear
9:15 PM 66.2 °F - 30.2 °F 26% 29.79 in 10.0 mi South 18.4 mph 29.9 mph N/A   Clear
9:35 PM 66.2 °F - 30.2 °F 26% 29.79 in 10.0 mi South 19.6 mph 28.8 mph N/A   Clear
9:55 PM 64.4 °F - 30.2 °F 28% 29.79 in 10.0 mi South 19.6 mph 26.5 mph N/A   Clear
10:15 PM 64.4 °F - 32.0 °F 30% 29.78 in 10.0 mi South 18.4 mph 29.9 mph N/A   Clear
10:35 PM 64.4 °F - 32.0 °F 30% 29.78 in 10.0 mi South 26.5 mph 32.2 mph N/A   Clear
10:55 PM 64.4 °F - 32.0 °F 30% 29.77 in 10.0 mi South 24.2 mph 34.5 mph N/A   Clear
11:15 PM 62.6 °F - 33.8 °F 34% 29.76 in 10.0 mi South 24.2 mph 31.1 mph N/A   Clear
11:35 PM 62.6 °F - 33.8 °F 34% 29.76 in 10.0 mi South 25.3 mph 35.7 mph N/A   Clear
11:55 PM 62.6 °F - 33.8 °F 34% 29.75 in 10.0 mi South 24.2 mph 34.5 mph N/A   Clear